This is the latest recevied weather packets stored in our database for station/object N7MLR. If no packets are shown the sender has not sent any weather packets the latest 10 day(s).
| Time | Temp. | Humidity | Pressure | Rain* | Wind** | Luminosity | Snow |
|---|---|---|---|---|---|---|---|
| 1777566931 | 17.78° C | 91% | 1012.9 hPa | 0 mm | - | 136 W/m² | - |
| 1777566629 | 18.33° C | 90% | 1012.9 hPa | 0 mm | - | 139 W/m² | - |
| 1777566326 | 17.78° C | 90% | 1012.7 hPa | 0 mm | - | 170 W/m² | - |
| 1777566024 | 18.33° C | 90% | 1012.8 hPa | 0 mm | - | 190 W/m² | - |
| 1777565719 | 18.33° C | 90% | 1012.6 hPa | 0 mm | - | 222 W/m² | - |
| 1777565415 | 18.33° C | 90% | 1012.6 hPa | 0 mm | - | 170 W/m² | - |
| 1777565112 | 18.33° C | 90% | 1012.7 hPa | 0 mm | - | 238 W/m² | - |
| 1777564808 | 18.33° C | 90% | 1012.7 hPa | 0 mm | - | 186 W/m² | - |
| 1777564503 | 18.33° C | 90% | 1013 hPa | 0 mm | - | 162 W/m² | - |
| 1777564198 | 18.33° C | 91% | 1012.9 hPa | 0 mm | - | 147 W/m² | - |
| 1777563895 | 17.78° C | 91% | 1012.5 hPa | 0 mm | - | 165 W/m² | - |
| 1777563591 | 17.78° C | 91% | 1012.6 hPa | 0 mm | - | 123 W/m² | - |
| 1777563290 | 17.78° C | 92% | 1012.6 hPa | 0 mm | - | 118 W/m² | - |
| 1777562987 | 17.22° C | 93% | 1012.5 hPa | 0 mm | - | 138 W/m² | - |
| 1777562683 | 16.67° C | 93% | 1012.3 hPa | 0 mm | - | 159 W/m² | - |
| 1777562383 | 16.67° C | 94% | 1012.2 hPa | 0 mm | - | 139 W/m² | - |
| 1777562079 | 16.67° C | 95% | 1012.3 hPa | 0 mm | - | 142 W/m² | - |
| 1777561776 | 16.67° C | 95% | 1012 hPa | 0 mm | - | 103 W/m² | - |
| 1777561472 | 16.11° C | 96% | 1012 hPa | 0 mm | - | 118 W/m² | - |
| 1777561167 | 16.67° C | 96% | 1012.4 hPa | 0 mm | - | 91 W/m² | - |
| 1777560862 | 16.11° C | 96% | 1012.6 hPa | 0 mm | - | 101 W/m² | - |
| 1777560560 | 16.11° C | 96% | 1012.5 hPa | 0 mm | - | 85 W/m² | - |
| 1777560258 | 16.11° C | 97% | 1012.6 hPa | 0 mm | - | 108 W/m² | - |
| 1777559955 | 16.11° C | 97% | 1012.3 hPa | 0 mm | - | 58 W/m² | - |
| 1777559650 | 16.11° C | 97% | 1012.8 hPa | 0 mm | - | 62 W/m² | - |
* Rain latest hour (hover to see other rain measurements)
** Current wind speed in m/s (hover to see current wind gust speed)